Wind_Speed
21 24 24 24 24 23 22 20 18 17 15 14 13 12 12 12 12 12 12 12 12 11 11 11 10 10 8 7 7 6 6 6 7 8 8 9 11 12 13 14 15 15 15 14 14 14 14 14 14 13 14 15 16 17 18 19 19 19 20 21 21 21 23 24 24 23 21 19 18 18 18 19 21 23 24 25 22 17 12 8 10 15 23 31 37
24 25 25 24 23 22 21 19 18 16 15 13 12 12 12 12 12 12 12 12 12 11 11 10 10 9 8 7 6 6 6 6 6 7 7 8 9 10 12 13 13 13 13 13 13 13 13 13 13 13 14 15 15 16 18 19 19 19 20 20 21 21 23 24 24 23 21 20 20 20 20 21 23 25 26 27 24 19 15 10 4 7 18 25 31
25 25 24 23 22 21 20 18 17 16 14 12 11 11 12 12 12 11 11 12 12 11 11 10 9 9 8 7 6 5 5 5 5 6 6 6 7 9 11 12 13 12 12 13 12 12 11 12 12 12 13 14 15 16 17 19 19 19 19 21 21 22 23 24 24 24 22 21 22 22 22 23 25 26 28 28 26 22 21 17 9 1 12 20 24
25 24 23 22 21 20 18 17 16 15 14 12 11 10 10 11 11 11 11 11 11 11 10 10 9 8 7 6 6 5 5 4 4 5 5 6 7 8 10 12 13 12 12 13 12 11 11 11 11 12 12 14 14 15 17 18 19 19 19 20 21 22 23 24 25 25 24 23 24 24 24 25 26 28 29 30 28 26 27 21 11 5 7 14 18
24 23 22 21 20 19 17 16 15 14 13 12 10 9 8 9 10 11 11 11 11 11 11 10 8 7 6 6 5 4 4 4 4 4 4 6 7 8 10 12 12 11 11 12 12 11 11 11 11 11 12 13 14 15 17 18 19 19 18 20 20 21 22 24 26 27 26 25 25 25 25 25 26 28 30 32 32 30 32 26 15 11 11 15 18
23 22 21 21 19 18 16 15 14 14 13 12 10 9 8 8 9 10 10 10 11 10 10 10 9 6 5 5 4 3 3 4 3 3 4 6 7 8 9 10 11 10 11 11 12 11 11 11 11 11 11 13 14 14 16 17 18 18 18 19 19 20 22 24 26 28 28 27 26 26 25 26 27 29 30 33 34 34 36 32 21 18 19 23 24
23 22 21 20 18 17 16 15 14 13 12 11 10 9 8 7 7 9 9 9 10 10 9 9 9 7 5 4 3 1 2 3 1 2 5 5 7 8 8 10 11 10 11 11 11 12 11 11 11 11 11 12 13 14 16 17 18 18 17 18 19 20 22 24 26 27 28 27 27 26 26 26 27 29 31 33 36 37 39 37 28 24 25 28 31
22 22 21 19 18 16 15 14 13 12 11 10 10 9 9 8 7 7 8 8 8 8 8 7 7 7 5 4 2 0 1 2 1 4 6 6 7 8 9 10 11 11 12 11 11 12 12 11 11 10 10 11 12 13 15 16 17 17 16 17 19 20 21 23 25 27 28 27 27 27 27 27 28 29 31 33 36 38 40 40 35 30 31 33 36
21 20 19 18 17 15 14 13 12 11 10 10 9 9 9 9 8 7 8 8 7 7 7 7 7 6 5 4 2 1 0 2 3 4 4 4 7 8 8 9 9 11 11 12 13 13 13 12 11 10 10 11 12 13 15 16 17 16 15 16 19 20 21 22 24 26 27 28 27 27 27 27 28 30 31 32 34 37 39 40 37 35 36 37 39
19 18 17 16 15 14 13 12 11 10 10 10 9 9 8 8 8 7 7 6 6 7 7 6 6 4 4 3 2 2 1 1 2 3 3 5 6 6 7 7 9 12 12 14 15 14 13 12 10 9 9 10 11 12 15 16 16 16 15 16 18 19 20 21 23 24 27 28 28 27 27 28 28 29 31 32 33 34 36 38 37 36 36 37 38
17 16 15 14 13 12 11 10 10 9 9 9 9 9 8 8 8 8 7 6 5 6 6 5 5 4 3 2 2 2 0 1 2 4 5 5 6 7 8 8 10 13 14 15 15 13 11 11 10 9 8 9 10 12 14 15 16 16 16 16 17 18 20 21 22 23 25 27 28 28 28 28 28 29 30 31 31 32 33 34 34 34 33 33 33
15 14 14 13 12 11 10 9 8 8 9 8 8 8 8 7 7 8 8 7 5 5 5 5 4 4 3 2 1 1 1 2 3 5 5 5 7 8 8 8 11 14 15 14 13 12 10 10 10 8 8 9 9 11 13 14 15 16 16 16 17 18 19 21 22 23 24 26 28 28 28 28 28 29 29 30 31 31 31 31 31 31 30 29 28
14 13 12 12 11 10 8 8 7 7 7 7 8 8 8 7 7 8 8 7 6 5 5 5 4 3 2 2 1 2 3 3 4 5 5 6 7 7 8 9 11 13 14 13 12 12 10 10 11 9 9 10 9 10 12 13 14 16 17 17 17 18 19 20 21 22 23 25 27 28 28 28 28 28 29 29 30 30 30 30 29 29 28 27 26
13 12 11 10 9 8 7 6 6 6 6 6 6 7 7 7 7 7 7 6 7 6 5 5 4 3 3 2 2 3 4 4 3 4 5 6 7 7 8 9 12 13 13 12 11 11 11 12 13 10 9 10 10 10 10 12 13 15 17 18 18 18 18 20 21 22 22 23 25 27 28 28 28 28 28 28 29 29 29 29 29 28 27 27 26
11 10 9 8 8 7 6 5 5 5 5 5 5 6 6 7 6 6 6 6 6 7 6 6 4 4 3 2 3 3 3 4 4 4 4 5 7 7 8 10 12 13 13 12 11 11 11 13 13 10 9 9 10 10 10 11 12 14 17 18 19 19 18 19 20 21 22 22 24 25 27 28 28 28 28 28 28 28 28 28 28 28 27 26 26
10 9 8 7 6 6 6 5 5 5 5 5 5 5 6 6 6 5 5 5 5 5 6 5 5 4 3 2 2 2 3 4 4 3 3 4 5 7 9 10 10 11 11 12 13 12 12 12 11 8 8 9 10 10 9 11 12 14 16 16 17 19 19 18 19 21 21 21 22 23 25 26 27 28 28 28 27 27 27 27 27 27 27 26 26
8 8 7 6 6 6 6 6 6 5 5 5 5 6 6 6 6 5 5 5 5 5 5 5 4 4 3 3 2 2 3 4 4 3 4 4 5 7 9 9 9 10 10 11 13 13 12 12 10 8 8 9 9 8 9 11 12 13 14 15 16 17 18 18 18 20 20 20 21 22 23 24 26 27 27 27 27 27 26 26 25 25 25 25 25
7 7 6 6 6 6 6 6 6 5 5 5 5 5 5 5 5 5 4 4 4 4 4 4 4 4 3 2 1 1 2 3 4 5 5 5 6 8 9 9 10 11 11 12 11 12 13 12 9 8 8 8 8 7 8 10 10 12 14 15 15 16 17 17 18 19 20 20 20 20 21 22 24 25 26 26 26 26 26 26 25 25 24 23 23
6 6 6 5 5 6 6 6 6 5 5 5 5 5 5 5 5 4 5 4 4 4 3 3 3 2 2 1 2 2 2 3 4 5 5 5 7 9 10 10 11 11 11 12 10 11 12 10 8 8 7 7 7 7 8 9 10 12 13 14 15 15 15 16 17 18 19 19 19 19 19 20 21 23 24 25 25 25 25 25 25 25 24 23 23
6 6 5 5 5 5 6 6 6 5 5 5 5 5 5 5 4 4 4 4 3 2 2 1 1 1 1 2 3 4 5 5 5 5 6 7 7 9 10 9 10 9 9 10 10 10 10 9 9 8 6 7 6 6 8 9 9 10 12 14 16 15 14 14 15 16 17 18 18 18 17 18 19 20 21 23 24 24 24 24 24 24 23 23 23
5 5 6 6 5 5 5 5 5 5 4 4 4 4 5 5 5 4 4 4 2 2 0 1 2 3 4 4 5 6 6 6 6 6 8 9 8 8 8 7 9 9 8 10 10 10 9 9 10 9 6 6 5 5 6 7 8 8 10 13 15 15 14 13 14 15 16 17 17 17 16 16 16 17 19 20 21 23 23 23 23 23 22 22 21
5 5 6 6 5 5 5 4 4 4 4 4 3 3 4 4 4 4 4 3 2 1 1 2 3 4 5 6 6 7 7 7 7 7 7 8 8 7 7 7 8 8 8 10 10 10 9 8 9 8 6 5 4 5 5 6 7 8 9 12 13 14 14 12 12 13 14 15 16 16 15 15 15 15 16 17 19 20 21 22 22 22 22 21 21
5 5 5 5 5 5 5 5 4 4 3 3 3 3 3 4 4 4 4 3 2 2 1 2 3 4 5 6 6 7 7 7 8 7 7 7 6 6 6 7 8 8 8 9 10 10 9 8 8 7 5 5 5 5 5 5 7 7 8 10 12 13 13 12 11 11 12 13 14 15 15 14 14 14 14 15 16 17 18 19 20 21 21 21 21
5 5 5 5 5 5 5 5 4 4 3 3 3 3 3 3 3 3 3 2 2 2 2 2 3 4 5 6 6 6 6 7 7 6 7 7 5 5 7 7 7 8 8 9 9 9 8 7 7 6 5 6 4 4 5 5 6 6 6 8 11 12 13 12 11 11 11 12 13 14 14 13 13 12 12 13 13 14 15 16 17 18 19 20 20
5 5 5 5 5 5 5 5 4 4 4 3 3 3 3 2 2 3 2 2 2 2 2 2 3 4 5 5 6 6 6 6 5 5 5 5 5 6 7 6 7 7 7 8 8 8 7 6 5 5 5 6 5 4 5 4 4 4 4 6 9 11 12 12 11 10 10 10 11 11 12 12 12 11 11 11 12 12 13 14 14 15 16 17 18
6 6 6 5 5 5 4 4 4 4 4 4 4 4 3 3 2 2 2 2 1 1 2 2 3 4 4 5 5 5 5 5 5 4 4 5 5 6 7 6 7 7 7 7 6 6 6 5 5 5 5 6 6 5 4 3 3 3 2 4 7 9 10 11 11 10 9 9 9 9 10 11 11 11 10 10 10 10 11 11 12 12 13 14 14
7 7 6 6 5 5 4 4 4 4 4 3 3 3 3 3 2 2 1 1 0 1 1 2 2 3 4 4 5 4 5 5 4 4 4 4 5 5 5 5 6 5 5 5 4 4 5 5 4 5 5 6 6 5 5 4 3 3 2 3 6 8 9 9 10 9 8 8 8 8 8 9 9 10 9 9 9 9 9 10 10 10 10 10 11
8 7 7 7 7 6 5 5 4 4 3 3 3 2 2 2 2 2 2 1 1 1 1 2 2 3 3 4 4 4 4 4 4 4 4 4 4 4 4 4 4 4 3 3 3 3 4 4 4 6 6 6 6 5 5 5 3 2 1 2 4 6 8 8 9 9 7 6 7 7 7 7 7 8 8 8 8 8 8 8 8 8 8 8 8
8 8 8 8 8 8 7 7 6 6 5 5 4 4 4 3 4 4 3 3 3 3 3 3 4 4 5 5 5 4 5 5 5 4 4 4 3 3 3 3 3 3 2 2 2 2 2 3 4 5 5 5 5 5 4 4 2 1 1 2 3 5 6 7 7 7 6 5 4 5 6 6 6 6 6 7 6 6 6 6 7 7 7 7 6
9 9 9 9 9 9 9 8 8 7 7 7 7 7 6 6 6 6 5 5 5 5 5 5 5 5 5 5 5 5 6 6 6 6 5 4 4 3 3 2 2 2 1 1 1 2 2 2 4 5 5 4 4 4 3 2 2 1 2 2 4 5 5 6 6 6 6 4 3 3 4 4 4 4 4 5 5 4 4 4 4 5 5 5 5
11 10 10 10 10 10 10 10 9 9 8 8 9 8 8 8 8 7 6 6 6 6 6 6 6 6 6 6 6 6 6 7 7 6 5 5 4 3 2 2 2 1 1 1 1 1 1 2 3 4 4 3 2 2 1 1 1 1 2 2 4 5 4 5 5 5 5 4 3 3 3 3 3 3 3 3 3 3 2 2 2 2 3 3 3
12 11 11 11 11 11 11 11 11 10 10 9 9 9 9 9 8 8 7 6 7 7 7 7 7 7 7 7 7 7 7 7 7 6 6 5 5 4 3 3 2 1 0 1 1 1 1 2 2 2 2 2 1 1 1 2 2 3 3 3 4 5 4 4 5 5 5 4 4 3 3 3 3 3 3 2 2 2 2 2 2 2 1 1 1
13 13 12 12 11 11 11 11 11 11 11 11 10 10 10 9 9 9 8 7 7 8 7 7 8 8 8 8 8 7 7 7 7 6 6 6 6 5 4 4 3 2 2 2 2 2 2 2 2 2 2 2 2 2 3 3 4 4 5 5 6 6 6 6 5 5 5 5 4 4 4 4 4 4 4 4 3 3 3 4 4 4 3 3 3
14 14 14 13 12 12 12 12 12 12 12 11 11 11 11 10 10 10 9 9 9 9 8 8 8 8 8 8 8 8 8 8 8 7 7 7 7 6 6 6 5 4 3 3 3 3 3 3 2 3 3 3 3 3 3 3 4 5 5 6 7 7 8 7 6 5 5 5 4 5 5 5 5 5 5 5 5 5 5 5 5 5 5 5 5
17 16 16 15 14 14 13 13 12 12 12 11 11 11 11 12 12 11 11 11 11 10 9 9 8 8 8 8 8 8 8 8 8 8 8 8 8 8 8 7 6 5 4 4 4 4 4 4 3 4 4 4 4 4 4 4 4 5 5 6 7 8 8 8 7 6 5 5 5 5 5 5 6 6 6 6 6 6 6 6 6 6 7 7 7
19 19 17 16 16 16 15 14 14 13 13 12 12 11 12 12 13 13 13 13 12 12 11 10 9 9 9 9 9 8 7 8 9 9 9 9 10 9 9 9 8 7 5 5 5 5 5 5 5 5 5 5 5 5 5 5 6 6 6 7 7 8 8 8 8 7 7 6 5 5 5 5 6 6 6 6 6 6 7 7 7 7 7 8 8
21 20 19 18 17 17 17 16 15 14 14 13 13 13 13 14 14 14 14 14 13 13 12 12 11 11 10 10 10 9 8 9 9 9 10 10 10 10 10 10 9 8 7 7 6 6 7 6 6 6 6 7 6 6 7 7 7 8 8 9 9 9 9 9 8 8 8 8 7 6 6 6 6 6 6 6 6 7 7 7 7 7 7 8 9
22 22 21 20 19 19 18 17 16 15 15 15 16 16 15 15 15 15 14 13 13 14 14 14 13 13 12 11 11 11 10 10 11 11 11 11 11 11 11 11 11 10 9 9 8 8 8 8 8 8 8 8 8 9 9 9 9 9 9 9 10 11 11 11 10 9 9 9 9 8 7 7 7 7 7 7 7 7 8 8 8 8 8 8 9
24 24 23 22 22 21 20 19 18 17 17 17 17 17 17 16 16 15 14 13 14 15 15 15 15 14 13 12 12 12 11 12 12 13 13 13 13 12 12 12 12 11 11 10 10 10 9 10 10 9 9 9 10 11 12 12 12 11 10 10 10 11 11 12 12 11 11 10 10 10 9 9 9 9 8 8 8 8 8 9 9 9 9 9 9
27 26 26 25 24 24 23 22 21 20 19 19 20 20 18 17 16 15 15 15 15 16 15 15 15 15 15 15 13 12 13 13 14 15 15 14 14 14 14 13 13 13 12 11 11 11 10 11 13 12 12 12 12 13 14 14 14 14 13 12 12 12 12 12 12 12 12 12 11 10 10 11 11 11 10 9 9 9 9 9 9 9 9 9 10
29 28 28 28 27 26 26 25 24 23 22 22 22 21 20 18 17 17 17 18 17 17 17 16 16 16 16 17 16 15 15 16 16 17 18 16 16 16 15 15 15 14 13 12 11 12 12 13 15 15 16 16 15 15 15 15 15 15 14 14 14 14 13 13 13 12 12 13 13 12 11 11 11 11 11 10 10 11 11 10 10 10 9 9 9
30 30 29 29 29 28 28 27 26 25 25 24 24 24 22 21 20 20 20 20 20 19 19 18 18 18 18 18 19 18 18 18 18 18 19 19 18 17 16 16 15 14 13 14 15 16 16 17 17 16 17 17 16 15 15 16 16 16 15 15 15 15 14 14 13 13 13 13 13 13 12 12 12 12 12 12 12 13 13 13 13 12 12 11 11
31 30 30 29 29 29 28 27 27 27 26 26 26 25 24 23 23 22 22 23 23 22 21 20 20 19 19 19 20 21 21 20 20 20 21 21 20 19 17 16 14 14 16 19 19 19 18 18 19 18 17 17 17 16 16 17 17 16 16 16 16 15 15 14 13 14 14 14 14 14 13 13 13 14 14 15 15 15 15 14 14 14 14 14 13
32 31 30 29 29 29 29 28 28 27 26 26 27 28 27 26 25 25 25 26 25 24 23 23 22 21 21 21 20 22 24 24 22 22 23 23 21 20 18 17 15 16 18 20 21 20 20 21 21 21 19 19 19 19 19 19 18 18 18 18 18 17 16 15 14 15 16 16 16 16 15 15 15 16 16 17 16 16 16 16 16 16 16 16 16
33 33 31 30 29 29 29 29 29 27 25 27 30 30 28 28 28 27 27 27 26 26 26 25 25 24 24 23 23 23 26 26 24 24 24 24 24 22 20 19 19 19 20 21 22 23 22 22 22 22 22 21 21 21 21 20 20 19 19 19 19 19 18 17 16 16 16 18 18 18 18 18 17 17 18 18 18 18 18 18 18 18 18 18 18
35 35 34 33 31 30 30 30 29 28 27 29 31 31 29 30 30 29 29 28 27 27 27 27 28 27 27 26 26 26 28 28 27 26 25 25 26 24 22 23 23 22 23 24 24 25 24 23 23 23 23 23 23 23 22 22 22 22 21 21 21 21 20 20 19 18 18 19 20 20 20 21 20 19 19 19 20 19 20 20 20 21 21 21 21
35 36 36 36 34 33 32 31 29 28 30 31 32 32 32 32 32 31 31 30 29 29 29 29 29 28 27 26 26 28 31 30 29 29 29 28 27 25 24 25 24 24 26 26 26 27 27 25 25 25 24 23 23 24 23 24 24 24 23 22 22 22 22 21 21 21 21 21 21 22 22 22 22 22 20 20 21 21 20 21 21 22 23 23 23
36 37 37 37 37 36 34 32 30 30 33 34 33 33 33 33 33 33 32 31 32 32 31 30 29 28 28 28 29 31 33 31 30 31 32 31 29 27 25 25 26 26 27 28 28 28 28 28 27 27 26 25 24 24 24 25 25 25 24 23 23 24 25 24 23 22 22 23 23 24 24 24 24 24 23 22 22 23 22 22 22 22 23 24 24
39 38 39 38 36 36 35 34 33 33 34 34 33 33 33 33 33 33 33 32 32 32 32 31 32 32 32 32 33 33 32 31 31 32 33 33 31 29 28 28 28 27 27 28 29 29 29 30 30 29 29 27 26 26 25 25 26 26 25 25 25 25 26 27 26 24 23 23 24 25 26 26 26 27 27 25 24 25 25 24 24 23 24 24 25
43 40 39 38 36 36 36 35 34 33 32 33 34 34 34 33 33 33 33 33 32 32 32 32 33 33 33 33 32 32 31 31 32 33 34 34 33 31 30 29 29 29 29 29 29 30 30 30 31 31 30 29 29 28 28 27 27 27 27 27 27 26 27 27 27 27 25 25 26 28 27 27 27 29 30 30 28 27 27 27 27 26 26 26 26
45 42 39 39 37 38 38 36 36 34 32 32 35 37 36 34 34 34 33 32 32 31 32 32 32 32 32 31 31 31 32 32 32 33 34 34 33 32 31 30 30 31 30 30 30 31 31 30 31 32 31 30 30 30 30 30 30 29 29 28 27 28 29 28 28 28 28 27 28 30 29 28 29 30 31 32 31 30 30 30 30 29 29 29 28
Wind_Direction
147 145 143 143 143 139 135 133 133 136 137 138 137 139 140 140 140 141 142 139 134 132 130 126 123 119 112 106 103 94 89 87 81 78 72 64 59 55 52 47 40 36 33 31 29 27 25 24 24 24 23 22 23 24 25 27 27 26 29 32 32 32 31 30 30 30 28 25 25 24 23 20 13 9 7 6 359 349 342 312 263 234 225 223 223
144 142 142 143 142 138 135 134 137 139 139 139 141 142 142 140 141 146 148 144 141 138 133 130 128 122 116 111 105 95 87 82 73 71 64 56 56 55 53 49 43 38 38 37 35 33 29 25 23 24 25 24 25 26 26 27 27 24 27 31 32 33 33 32 32 32 29 28 29 29 27 24 19 15 13 11 7 5 13 15 343 221 210 212 215
141 141 142 143 141 137 136 138 140 140 139 141 144 144 142 142 145 150 151 148 145 142 139 138 133 127 126 120 111 102 91 81 67 62 57 50 50 52 52 51 46 40 40 41 39 37 36 32 27 25 25 26 28 29 27 28 28 25 26 30 31 33 34 33 33 33 31 31 32 32 30 27 24 20 18 18 17 21 28 26 21 158 196 203 204
139 140 143 142 140 138 138 141 142 141 141 144 147 145 143 145 148 152 154 152 149 149 148 143 135 133 134 125 117 109 94 85 65 55 51 44 40 42 48 49 46 41 42 43 40 39 40 38 32 27 25 28 31 32 30 29 28 26 27 31 31 32 34 34 33 33 33 33 34 35 33 30 29 26 23 25 26 32 37 34 36 71 158 181 182
139 142 144 142 141 139 140 142 144 146 146 145 146 145 146 147 149 152 156 157 155 156 153 148 147 147 141 132 122 111 107 95 66 46 34 31 32 33 38 45 47 45 44 45 42 40 42 42 35 30 27 30 35 35 32 31 29 27 29 32 33 32 35 35 34 35 34 34 36 37 37 33 33 31 29 32 34 40 44 42 55 81 108 134 141
141 144 144 143 141 141 143 146 149 150 148 146 146 148 151 150 151 155 159 163 162 162 159 155 160 170 162 142 120 109 108 79 55 42 31 25 26 27 30 43 50 50 47 47 44 42 43 45 40 33 30 32 37 38 36 34 30 28 30 34 35 33 36 36 36 36 35 35 37 38 39 37 36 36 36 38 40 45 50 49 62 87 102 114 118
144 145 144 142 142 144 147 149 151 152 151 149 150 152 155 156 158 160 163 167 166 167 166 156 158 180 187 147 113 117 101 71 53 45 32 18 21 19 20 36 47 49 48 49 47 44 44 47 45 36 33 35 39 42 39 36 33 30 31 35 37 36 37 39 38 39 38 37 38 39 41 41 40 41 41 43 46 50 54 54 62 85 101 111 116
144 143 143 143 145 148 149 151 152 153 154 156 158 159 159 160 164 167 170 172 169 170 171 162 165 181 183 146 116 193 89 62 26 35 20 8 18 13 12 33 49 49 45 48 47 46 45 46 48 40 35 37 41 45 42 39 36 33 32 37 40 39 40 41 40 41 42 40 40 41 43 45 44 45 46 48 51 55 58 58 62 80 97 109 116
142 143 144 145 148 150 151 153 154 156 159 162 164 166 164 164 166 171 175 175 173 176 174 173 180 181 176 153 139 224 150 26 358 15 13 17 20 11 12 30 48 48 46 51 49 46 45 45 48 43 37 40 42 47 46 41 39 36 35 39 42 43 43 43 42 43 45 44 44 44 45 48 49 49 50 51 55 59 64 67 69 79 92 103 111
142 143 145 147 148 150 152 154 155 158 162 165 167 169 173 171 168 167 172 177 179 185 186 184 184 183 190 173 160 216 187 26 336 339 7 33 22 13 21 22 37 47 46 49 46 42 43 44 48 49 43 43 46 49 48 43 41 40 39 43 45 46 46 47 45 45 47 47 47 47 47 49 52 53 54 55 58 62 68 73 79 85 92 98 105
142 144 145 147 149 151 154 155 156 160 164 168 170 172 178 178 172 165 162 172 184 192 194 191 188 187 200 192 179 226 281 20 340 346 6 24 8 9 21 17 32 43 37 39 44 41 41 48 49 52 54 50 50 52 50 47 44 43 43 47 49 48 49 51 49 47 48 49 50 50 50 52 54 57 59 59 61 64 69 75 81 88 93 98 103
141 143 145 148 151 152 154 155 157 161 165 171 173 175 180 179 175 168 162 166 179 191 191 190 196 196 209 226 224 265 344 23 2 354 3 14 9 12 15 14 31 39 32 32 43 42 43 58 53 49 61 59 58 57 53 50 48 46 45 49 52 50 50 53 53 51 49 51 52 53 53 54 56 59 62 64 65 67 71 75 81 86 92 97 100
142 144 148 149 151 152 153 154 156 160 166 171 173 175 176 174 176 173 168 168 172 182 190 192 201 206 225 259 295 312 347 17 7 354 356 358 4 18 13 9 21 32 33 28 34 38 36 57 58 43 51 59 61 63 57 53 51 49 47 47 53 53 51 53 55 54 52 52 54 55 56 57 58 60 63 66 69 71 73 76 80 84 89 93 97
145 146 150 151 153 153 153 153 154 159 167 173 175 174 173 175 179 177 175 177 177 183 192 195 204 223 237 267 307 321 345 4 5 357 356 342 347 14 18 18 24 29 35 24 22 36 32 49 60 44 40 49 55 63 59 55 53 52 49 46 50 53 52 53 56 57 55 54 55 57 59 60 60 61 63 67 70 73 75 77 80 83 87 90 94
147 149 151 153 155 155 156 156 153 155 161 172 179 177 177 179 181 178 178 182 184 190 198 200 210 233 247 278 314 324 340 350 355 353 353 337 340 9 17 23 31 28 25 12 13 38 41 47 59 51 43 47 48 54 57 57 54 53 51 46 47 51 52 53 55 57 57 56 56 57 60 62 63 64 64 67 70 73 76 79 81 83 85 88 90
147 149 152 155 158 159 160 158 153 153 158 170 180 183 184 184 181 177 172 176 184 195 204 213 224 241 256 269 295 321 337 345 351 341 338 339 345 7 7 10 29 28 16 10 20 41 47 46 55 59 58 56 47 45 53 55 53 52 52 48 46 48 50 53 55 57 57 57 58 58 59 62 65 67 67 68 70 72 76 79 81 83 85 87 89
149 151 154 159 161 161 162 158 153 153 157 167 178 185 186 184 185 179 168 170 181 197 212 230 243 253 269 272 275 315 339 339 347 349 351 357 2 15 12 6 24 33 23 24 32 38 40 41 48 56 63 63 53 49 58 56 50 50 50 47 46 46 46 50 54 57 57 57 58 60 61 62 65 68 70 71 72 73 75 78 81 83 85 87 89
154 158 160 161 161 159 160 160 160 156 153 161 173 184 186 184 187 181 174 176 179 191 208 231 251 261 275 287 282 315 350 352 2 10 12 13 14 25 30 22 27 31 27 31 39 40 40 42 46 52 56 58 58 57 61 59 52 48 46 42 43 44 43 45 50 55 57 57 57 59 62 63 65 67 70 73 74 75 77 79 81 84 86 87 89
161 165 165 164 160 157 159 163 163 155 149 156 167 177 182 185 188 181 179 186 185 181 188 219 247 260 275 328 31 47 45 28 11 10 12 13 18 28 34 35 34 31 26 30 36 41 43 42 44 56 57 53 56 60 59 58 54 47 42 38 38 40 41 41 44 51 55 57 56 58 61 65 67 68 70 73 76 77 78 80 82 84 86 88 90
169 170 172 172 167 161 161 163 160 154 150 155 163 173 181 186 191 186 182 190 195 181 167 209 271 318 336 5 24 32 38 34 24 23 20 5 1 16 28 36 39 35 31 34 35 40 43 40 43 51 55 53 54 60 60 58 54 48 42 37 34 37 39 39 40 45 52 56 56 57 60 64 68 71 72 74 77 79 80 82 83 84 86 88 90
175 175 176 176 173 168 167 164 158 153 152 157 161 170 181 188 189 186 185 193 203 200 199 341 350 5 13 14 16 21 24 22 18 19 23 19 9 17 32 38 36 32 28 27 29 36 40 44 47 40 38 50 56 63 64 61 58 53 47 39 34 35 38 40 41 42 47 52 55 57 59 63 68 72 75 77 78 81 82 84 85 86 87 88 89
178 179 179 178 175 173 173 171 166 160 157 157 158 168 182 190 191 189 188 195 206 220 286 347 355 6 16 14 13 17 16 12 7 1 8 20 19 26 39 33 27 30 31 27 28 33 35 40 41 36 39 49 47 53 60 63 59 52 45 38 32 35 38 39 42 43 46 48 50 54 57 61 66 72 77 80 81 82 84 86 87 88 88 89 89
175 175 177 177 175 174 176 179 179 176 169 162 158 165 179 190 197 199 198 202 215 241 287 332 345 359 8 9 12 16 16 16 16 10 9 15 20 27 26 16 18 31 41 39 36 36 37 37 32 33 47 44 37 46 53 58 55 48 41 34 31 36 39 37 38 42 47 50 49 49 51 55 62 69 75 80 83 84 86 87 88 90 91 91 91
166 168 171 175 175 174 175 180 182 179 172 164 161 161 171 184 204 213 217 224 238 266 294 320 335 347 355 2 9 11 13 18 18 15 18 26 35 28 18 10 9 19 34 39 37 37 38 37 29 30 45 45 39 49 59 59 54 53 44 31 30 36 39 38 37 36 41 51 54 51 50 50 55 63 70 77 82 86 88 89 89 90 92 93 94
163 165 164 165 170 169 167 164 163 166 162 155 150 150 154 167 198 224 234 246 261 285 309 327 336 344 348 356 6 6 8 18 20 18 21 30 38 32 31 31 15 15 28 32 30 32 35 35 31 34 45 54 53 56 65 64 61 71 61 32 31 35 35 35 36 35 34 42 53 56 54 51 51 56 63 71 77 83 87 90 91 92 93 94 95
169 171 165 163 167 167 162 154 150 154 152 147 140 136 139 146 172 216 235 246 266 298 324 342 345 350 354 357 6 9 8 11 14 16 16 21 30 30 32 32 22 25 33 29 25 27 36 40 37 38 47 59 63 63 68 68 70 86 79 32 30 31 29 29 30 34 33 35 44 52 54 54 52 54 59 65 70 76 82 87 91 93 95 96 97
179 181 176 174 180 182 179 172 166 163 157 155 149 141 139 143 157 189 217 240 306 353 354 1 355 354 358 360 4 8 8 7 3 6 8 10 18 21 23 21 20 27 29 29 32 29 38 49 45 46 53 61 64 62 65 73 77 82 62 18 22 20 19 19 21 28 31 33 38 43 48 51 51 52 56 62 67 70 74 79 84 89 94 97 99
186 192 191 188 193 201 203 201 200 200 194 191 190 186 182 177 190 212 228 249 281 312 325 330 329 331 333 335 341 342 343 344 343 348 354 359 5 3 4 5 5 11 13 22 41 46 50 59 61 61 62 66 69 65 68 76 78 82 52 5 8 6 4 5 9 16 24 29 34 39 42 44 43 44 47 56 65 69 70 71 73 77 84 91 97
192 198 202 202 204 210 215 217 219 224 226 225 225 225 226 226 231 236 242 251 260 268 277 287 295 301 305 308 312 312 310 310 311 316 322 330 337 335 338 343 342 345 346 1 44 76 75 71 78 80 76 78 82 76 74 73 62 48 351 333 339 344 346 349 356 4 12 18 24 32 38 40 40 38 35 39 48 61 69 71 70 68 69 74 82
201 202 205 209 212 215 219 223 226 229 233 235 237 237 238 238 238 239 243 248 253 256 260 266 273 284 291 295 296 294 294 292 291 292 294 301 303 301 309 320 321 325 330 352 42 96 104 86 87 92 94 93 92 90 80 70 49 353 312 308 315 321 327 335 346 355 360 3 7 15 22 28 33 36 34 30 27 34 48 61 70 71 69 65 64
210 209 209 213 216 218 221 224 227 230 231 233 236 239 241 241 239 239 242 246 249 250 252 255 258 266 274 280 282 282 284 283 281 278 277 279 279 277 282 293 303 326 358 26 69 123 124 103 96 97 103 103 99 100 81 38 353 309 303 306 306 306 309 320 334 343 346 346 347 347 351 355 358 10 23 23 14 6 4 15 35 56 69 69 65
219 218 216 216 218 220 221 224 226 229 231 232 235 238 240 240 239 239 240 242 245 247 249 250 250 251 255 260 265 266 269 272 272 270 268 265 263 262 264 266 273 279 230 187 178 178 173 142 121 110 114 120 138 233 276 290 293 292 296 298 295 293 301 315 323 328 327 329 327 321 320 321 318 319 327 332 329 321 308 302 299 300 310 340 42
224 224 224 223 221 220 221 224 226 228 230 232 234 237 239 240 239 238 237 236 240 244 246 246 246 246 245 245 247 247 249 253 255 256 254 252 253 254 255 256 259 253 235 223 218 216 217 194 168 171 181 181 203 235 260 279 290 296 300 301 297 297 304 311 313 313 309 311 310 305 303 300 294 293 293 294 294 288 281 276 272 270 270 273 277
228 227 227 227 224 221 220 222 225 228 231 231 232 235 238 239 239 237 234 233 235 238 241 242 243 245 246 246 247 248 248 246 246 246 243 242 243 246 247 249 251 248 239 233 236 241 248 241 214 202 205 209 220 233 255 276 288 297 303 301 298 298 300 301 305 307 304 301 298 294 293 288 282 278 279 283 284 283 278 272 267 265 261 261 264
232 232 230 229 228 226 223 223 224 228 231 233 233 234 236 239 240 237 234 233 234 235 236 239 241 244 250 255 259 261 260 257 254 251 246 243 243 244 246 249 252 250 243 237 237 242 252 250 235 223 222 227 238 252 268 283 293 299 301 299 298 298 298 299 300 300 298 297 293 287 283 280 277 273 272 274 277 278 276 273 271 269 265 261 260
234 235 235 234 233 232 230 228 228 229 231 235 236 236 237 239 240 239 238 237 237 237 237 239 242 246 252 260 266 269 267 262 259 255 250 246 246 247 247 248 251 253 250 249 246 246 251 250 240 237 239 244 253 265 275 286 294 299 299 298 296 296 296 296 297 295 293 288 284 280 277 275 272 270 270 272 273 274 272 270 270 269 268 266 264
238 238 239 239 239 239 239 237 235 234 234 235 237 238 238 240 241 241 241 241 242 243 243 241 241 243 247 253 260 264 264 261 259 255 250 247 246 247 249 249 252 255 253 251 250 250 252 251 245 240 242 247 254 261 269 278 287 293 298 300 300 299 296 293 291 290 289 284 276 271 267 265 265 265 268 272 275 277 277 276 274 272 270 267 266
242 242 242 242 242 243 244 245 244 243 241 240 239 239 240 242 245 247 246 247 248 249 248 246 244 242 241 244 249 255 258 259 259 257 253 251 248 246 247 250 252 254 255 254 253 251 251 251 249 247 247 251 255 259 261 264 271 279 287 293 298 300 298 295 290 280 274 273 270 266 260 253 252 254 258 265 270 274 277 279 280 280 277 273 270
242 243 244 244 244 244 245 246 247 247 247 247 247 245 243 243 247 251 253 252 250 250 251 253 254 252 249 248 249 253 256 258 261 262 259 257 256 253 251 252 254 255 257 259 259 258 259 260 259 256 257 258 258 260 262 264 268 273 278 282 286 289 291 293 291 284 274 267 263 260 258 252 249 249 251 255 260 265 270 272 273 276 277 276 275
241 242 243 244 245 245 246 246 247 248 248 250 251 252 251 249 250 252 252 249 248 247 247 249 254 258 259 258 254 252 253 255 259 262 262 260 261 261 259 259 260 260 260 262 268 272 276 276 276 275 273 271 268 265 265 267 271 275 278 281 282 283 284 284 284 282 278 273 267 260 256 253 251 250 250 254 261 266 269 270 270 269 270 271 271
242 242 244 246 247 248 248 249 248 249 249 249 251 252 253 252 252 252 250 249 248 246 245 245 247 253 259 263 260 254 250 250 252 255 258 258 258 260 262 263 262 264 269 273 274 271 266 263 265 267 267 269 273 274 273 273 276 279 281 281 281 282 283 283 281 277 273 271 269 265 259 256 254 254 255 261 268 273 276 277 276 274 270 268 266
242 243 245 246 248 250 251 253 253 253 253 252 252 252 252 251 251 251 251 252 251 249 248 248 247 249 253 259 263 260 253 251 252 254 256 257 256 257 259 261 263 268 271 268 261 255 251 250 250 250 251 255 262 270 274 274 276 278 279 278 278 278 277 276 277 276 273 268 267 265 264 262 262 264 267 270 272 275 278 279 280 280 278 274 269
242 243 244 246 248 250 252 254 255 256 256 256 256 255 254 253 251 251 251 252 251 249 248 250 251 251 252 255 261 263 260 257 257 258 257 257 257 257 258 261 265 266 263 259 258 258 260 261 260 260 261 263 264 268 272 275 277 279 277 276 277 276 274 270 268 268 267 264 262 262 262 261 263 265 267 267 268 270 272 274 276 277 277 276 274
245 244 245 247 250 251 253 253 254 256 257 259 260 258 256 255 253 251 250 251 252 251 250 251 252 252 254 256 259 263 264 262 260 260 260 259 259 259 260 262 262 261 260 263 264 264 264 264 264 266 269 271 269 267 270 276 280 281 280 279 278 276 274 271 268 263 261 259 258 258 258 258 260 263 265 266 266 266 268 270 272 273 274 274 274
246 246 246 246 247 250 252 252 252 252 253 255 256 255 255 255 254 253 251 251 252 252 252 252 252 254 258 259 258 261 265 264 260 261 264 265 264 262 262 261 258 256 258 262 264 264 264 264 266 269 272 272 269 266 267 272 276 279 279 278 278 279 278 276 272 267 263 262 260 260 260 259 259 260 263 265 265 266 268 269 271 273 274 274 273
247 247 247 246 244 245 247 250 252 253 252 252 253 255 256 256 256 255 254 253 253 252 251 251 251 252 256 259 258 259 260 259 258 259 261 264 265 264 262 261 260 259 258 259 262 265 266 265 266 268 271 271 270 268 267 269 274 276 276 274 274 275 277 278 278 275 270 266 264 264 263 264 264 261 260 262 263 264 266 270 273 274 275 275 276
249 249 249 248 246 243 243 244 246 250 251 251 253 255 256 256 256 255 255 255 255 255 255 254 253 254 259 262 262 259 256 256 257 257 257 259 261 262 263 265 266 267 267 266 266 266 268 268 268 269 269 270 270 269 268 270 274 277 276 275 272 271 271 274 279 279 277 273 271 269 268 267 268 267 263 263 265 265 265 267 271 273 276 276 277
246 246 246 247 248 248 247 245 242 242 246 248 250 253 254 255 256 256 255 254 253 254 255 255 255 258 261 261 258 256 256 257 258 258 259 260 260 260 261 262 263 265 268 270 271 270 271 271 271 271 271 271 271 269 267 269 273 276 277 277 275 273 272 273 275 276 278 279 278 277 275 273 273 273 270 267 267 268 267 266 267 269 272 274 275
243 243 242 243 247 250 252 252 249 246 247 248 249 250 252 254 255 256 255 254 254 254 254 252 252 253 254 253 254 256 258 260 260 260 260 261 261 260 258 258 259 261 264 266 269 270 270 270 270 271 271 272 273 271 268 268 270 273 274 276 276 276 276 276 276 274 273 276 280 282 281 279 277 275 274 271 269 269 270 269 268 267 268 270 272
247 247 245 243 244 246 248 250 252 251 251 252 253 252 251 252 254 254 254 255 256 256 256 254 253 253 253 253 255 257 258 259 260 261 262 262 262 261 260 259 261 263 264 264 266 269 270 270 269 269 269 270 271 270 268 267 267 268 270 273 275 275 276 277 278 274 269 269 276 281 281 280 279 277 276 274 271 269 269 269 268 268 268 269 269
251 250 249 247 244 243 243 245 247 247 245 247 251 251 250 250 251 252 253 255 256 256 257 257 257 258 257 257 257 259 259 259 259 260 262 264 263 263 263 262 262 264 265 266 268 269 269 270 269 269 269 269 269 269 268 268 267 266 266 269 273 275 275 276 277 275 272 269 271 276 278 279 279 280 280 278 274 270 268 268 268 267 268 269 269
Height
5923 5924 5925 5927 5927 5928 5929 5930 5931 5932 5933 5934 5934 5935 5935 5936 5936 5936 5937 5937 5938 5939 5938 5939 5939 5939 5939 5938 5939 5940 5940 5940 5941 5941 5941 5941 5940 5940 5939 5938 5936 5935 5933 5930 5929 5927 5926 5924 5923 5921 5919 5917 5915 5913 5912 5910 5908 5907 5905 5904 5902 5901 5899 5896 5894 5891 5889 5887 5885 5881 5878 5875 5872 5868 5864 5859 5855 5850 5844 5839 5836 5836 5835 5837 5838
5924 5925 5926 5927 5928 5929 5929 5931 5932 5933 5934 5935 5935 5936 5936 5936 5936 5937 5937 5938 5938 5939 5939 5939 5939 5939 5940 5939 5939 5940 5940 5940 5941 5941 5940 5940 5940 5939 5939 5938 5937 5936 5934 5932 5930 5928 5926 5925 5923 5922 5920 5919 5917 5915 5913 5911 5909 5908 5906 5904 5903 5901 5899 5897 5895 5892 5890 5887 5884 5881 5878 5875 5872 5868 5863 5858 5853 5847 5840 5835 5832 5830 5830 5831 5833
5925 5926 5927 5928 5929 5930 5930 5932 5933 5934 5935 5936 5936 5936 5936 5936 5936 5937 5938 5938 5938 5939 5939 5939 5940 5940 5940 5940 5940 5940 5940 5940 5941 5940 5940 5939 5939 5938 5938 5937 5937 5936 5935 5933 5931 5929 5927 5926 5924 5923 5921 5920 5918 5916 5914 5912 5910 5909 5907 5905 5903 5902 5900 5898 5896 5894 5891 5888 5884 5882 5879 5875 5872 5867 5863 5858 5852 5845 5838 5833 5830 5827 5826 5827 5830
5926 5927 5928 5929 5930 5931 5932 5933 5934 5935 5936 5936 5937 5937 5937 5937 5937 5937 5938 5938 5939 5939 5939 5940 5940 5940 5940 5940 5940 5940 5941 5941 5941 5940 5939 5939 5938 5937 5937 5937 5937 5936 5935 5934 5932 5930 5928 5926 5925 5924 5922 5921 5920 5918 5915 5913 5911 5910 5908 5906 5904 5902 5901 5899 5897 5894 5891 5888 5885 5882 5879 5876 5873 5868 5864 5858 5852 5845 5838 5832 5829 5826 5825 5825 5828
5927 5928 5929 5930 5931 5932 5933 5934 5935 5936 5936 5937 5937 5937 5937 5937 5937 5938 5938 5938 5939 5939 5939 5940 5940 5939 5940 5939 5940 5940 5941 5941 5941 5940 5940 5939 5938 5937 5937 5936 5936 5935 5935 5934 5932 5930 5929 5927 5925 5924 5923 5922 5921 5919 5917 5915 5912 5911 5909 5907 5905 5904 5902 5900 5897 5894 5892 5889 5886 5883 5880 5877 5874 5870 5865 5860 5853 5846 5839 5834 5831 5828 5826 5827 5830
5928 5929 5930 5931 5932 5933 5934 5935 5935 5936 5937 5937 5937 5937 5937 5938 5938 5938 5938 5938 5939 5938 5939 5940 5940 5940 5939 5939 5940 5940 5940 5941 5941 5941 5940 5939 5938 5937 5936 5936 5936 5935 5934 5933 5932 5930 5929 5927 5926 5925 5924 5923 5922 5920 5918 5916 5914 5912 5910 5909 5907 5905 5903 5901 5898 5895 5893 5890 5887 5884 5882 5879 5876 5872 5867 5862 5856 5850 5843 5839 5835 5833 5831 5832 5834
5929 5930 5931 5932 5933 5934 5935 5935 5936 5937 5937 5937 5937 5938 5938 5938 5938 5938 5938 5938 5939 5938 5938 5939 5940 5940 5939 5939 5940 5940 5940 5941 5940 5940 5940 5938 5937 5936 5936 5937 5936 5935 5934 5933 5931 5931 5930 5928 5927 5926 5925 5924 5923 5922 5920 5918 5916 5914 5912 5910 5909 5907 5904 5902 5900 5897 5895 5892 5889 5886 5884 5881 5877 5874 5870 5865 5860 5855 5849 5845 5842 5839 5838 5838 5840
5930 5931 5932 5933 5934 5935 5935 5936 5936 5937 5937 5938 5938 5938 5938 5938 5939 5939 5939 5939 5939 5939 5938 5939 5940 5940 5939 5940 5940 5940 5940 5940 5939 5940 5939 5939 5937 5935 5934 5935 5936 5935 5934 5934 5932 5931 5930 5929 5928 5927 5926 5925 5924 5923 5921 5919 5918 5916 5914 5912 5910 5908 5906 5904 5902 5900 5897 5894 5891 5889 5886 5883 5880 5877 5873 5869 5865 5861 5856 5852 5850 5847 5846 5846 5848
5932 5932 5933 5934 5935 5935 5936 5936 5937 5937 5938 5938 5938 5938 5938 5938 5939 5939 5939 5939 5939 5939 5939 5939 5940 5940 5939 5940 5941 5940 5940 5940 5939 5940 5939 5939 5937 5935 5933 5932 5934 5935 5935 5935 5933 5931 5931 5930 5929 5928 5927 5926 5925 5924 5922 5921 5919 5918 5916 5914 5912 5910 5908 5905 5904 5902 5899 5897 5894 5891 5888 5885 5882 5879 5876 5873 5870 5867 5863 5861 5859 5857 5856 5856 5858
5933 5934 5934 5935 5935 5936 5937 5937 5937 5938 5938 5938 5939 5939 5939 5939 5939 5939 5939 5940 5940 5940 5940 5940 5940 5940 5940 5941 5941 5940 5940 5940 5940 5938 5938 5938 5937 5936 5935 5932 5934 5935 5935 5935 5935 5932 5930 5930 5929 5928 5927 5927 5926 5925 5924 5922 5921 5919 5918 5916 5914 5912 5910 5908 5906 5904 5901 5899 5896 5894 5891 5888 5886 5883 5880 5878 5875 5873 5870 5868 5867 5867 5867 5867 5869
5934 5935 5935 5936 5937 5937 5938 5938 5938 5938 5939 5939 5939 5939 5939 5939 5939 5939 5939 5940 5940 5940 5941 5941 5941 5941 5940 5940 5941 5941 5940 5940 5940 5938 5937 5938 5937 5936 5935 5933 5933 5935 5934 5934 5934 5933 5931 5929 5929 5928 5927 5927 5926 5926 5925 5924 5922 5921 5919 5918 5916 5914 5912 5910 5908 5906 5904 5901 5899 5896 5894 5891 5889 5887 5884 5882 5880 5878 5877 5875 5874 5874 5874 5875 5877
5935 5936 5936 5937 5937 5938 5938 5938 5939 5939 5939 5940 5940 5940 5940 5940 5940 5939 5940 5940 5940 5941 5941 5941 5941 5941 5941 5941 5941 5941 5940 5940 5940 5939 5938 5938 5937 5936 5935 5933 5933 5934 5933 5933 5933 5933 5931 5930 5930 5928 5926 5927 5927 5926 5926 5925 5924 5922 5921 5919 5917 5916 5914 5912 5910 5908 5906 5904 5902 5899 5897 5894 5892 5890 5888 5886 5885 5883 5882 5881 5881 5881 5881 5881 5882
5936 5936 5937 5937 5938 5938 5939 5939 5939 5939 5940 5940 5940 5940 5940 5940 5940 5940 5940 5940 5941 5941 5941 5942 5941 5941 5942 5942 5941 5941 5940 5941 5941 5939 5939 5938 5937 5937 5936 5934 5933 5934 5933 5932 5932 5932 5932 5931 5930 5928 5927 5927 5927 5927 5926 5926 5925 5923 5922 5920 5919 5917 5916 5914 5912 5910 5908 5906 5904 5902 5900 5897 5895 5893 5892 5890 5889 5888 5887 5886 5886 5886 5886 5887 5887
5936 5937 5937 5938 5938 5938 5939 5939 5939 5940 5940 5941 5941 5941 5941 5941 5941 5941 5941 5941 5941 5941 5941 5941 5942 5942 5942 5942 5942 5941 5941 5941 5941 5940 5940 5939 5937 5937 5937 5935 5934 5934 5933 5933 5933 5932 5931 5930 5930 5930 5929 5928 5928 5927 5927 5927 5926 5924 5923 5921 5920 5919 5917 5916 5914 5912 5910 5908 5906 5905 5902 5900 5898 5897 5895 5894 5893 5892 5891 5891 5891 5891 5891 5891 5892
5936 5937 5937 5938 5938 5938 5939 5939 5940 5940 5940 5941 5941 5941 5941 5941 5941 5942 5942 5941 5941 5941 5941 5941 5942 5942 5942 5942 5942 5942 5942 5942 5941 5941 5941 5940 5938 5936 5936 5936 5935 5934 5933 5934 5933 5931 5930 5930 5931 5932 5931 5930 5929 5928 5928 5928 5927 5925 5924 5923 5921 5920 5919 5917 5915 5914 5912 5911 5909 5907 5905 5903 5902 5900 5899 5897 5896 5896 5895 5895 5895 5895 5895 5896 5896
5936 5937 5937 5938 5938 5938 5939 5939 5940 5940 5941 5941 5941 5941 5942 5942 5942 5942 5942 5942 5942 5942 5942 5942 5942 5942 5942 5942 5942 5941 5942 5942 5942 5942 5941 5940 5938 5936 5936 5935 5935 5935 5935 5934 5932 5930 5930 5930 5930 5932 5932 5931 5930 5930 5929 5929 5928 5926 5925 5924 5923 5922 5920 5919 5918 5916 5914 5913 5911 5910 5908 5907 5905 5903 5902 5901 5900 5899 5898 5898 5898 5898 5899 5899 5900
5936 5937 5938 5938 5938 5939 5939 5939 5940 5940 5941 5941 5941 5941 5942 5942 5942 5942 5942 5942 5942 5942 5942 5942 5942 5942 5942 5941 5941 5942 5942 5942 5942 5942 5941 5940 5939 5938 5937 5936 5936 5936 5936 5935 5933 5931 5930 5930 5930 5930 5931 5931 5931 5930 5929 5929 5928 5928 5926 5926 5925 5924 5922 5921 5920 5918 5917 5915 5914 5913 5911 5910 5908 5906 5905 5904 5903 5902 5902 5901 5901 5901 5902 5902 5903
5937 5937 5938 5938 5938 5939 5939 5939 5940 5940 5941 5941 5941 5942 5942 5942 5943 5943 5943 5943 5943 5943 5943 5943 5943 5942 5942 5942 5942 5942 5943 5942 5942 5942 5941 5940 5940 5939 5939 5938 5936 5936 5935 5934 5933 5932 5930 5930 5930 5929 5929 5930 5931 5930 5929 5929 5929 5928 5928 5927 5927 5926 5925 5923 5922 5921 5919 5918 5916 5915 5914 5913 5911 5910 5908 5907 5906 5906 5905 5905 5905 5904 5905 5905 5906
5937 5937 5938 5938 5938 5939 5939 5939 5940 5940 5941 5941 5941 5942 5942 5943 5943 5943 5944 5944 5943 5943 5943 5943 5943 5943 5943 5943 5943 5943 5943 5942 5942 5942 5941 5941 5940 5939 5939 5938 5937 5936 5936 5934 5933 5933 5932 5932 5931 5930 5929 5930 5930 5929 5929 5929 5929 5930 5929 5929 5928 5928 5927 5926 5924 5923 5922 5920 5919 5918 5917 5915 5914 5913 5912 5911 5910 5909 5908 5908 5908 5908 5908 5908 5908
5937 5937 5938 5938 5939 5939 5939 5939 5940 5940 5941 5941 5942 5942 5942 5943 5943 5943 5944 5944 5944 5943 5944 5944 5943 5943 5943 5943 5943 5943 5943 5942 5942 5942 5941 5941 5941 5940 5940 5939 5939 5938 5937 5936 5935 5934 5933 5933 5932 5931 5930 5931 5930 5929 5930 5930 5930 5931 5931 5930 5930 5929 5929 5928 5927 5925 5924 5923 5922 5920 5919 5918 5917 5916 5915 5914 5913 5912 5911 5911 5910 5910 5910 5910 5911
5937 5937 5938 5938 5939 5939 5939 5940 5940 5941 5941 5941 5942 5942 5942 5943 5943 5943 5944 5944 5944 5944 5944 5944 5943 5944 5943 5943 5943 5943 5943 5942 5942 5942 5942 5942 5941 5941 5941 5940 5940 5939 5938 5937 5935 5934 5934 5933 5933 5932 5931 5931 5930 5930 5931 5931 5931 5932 5932 5931 5931 5931 5930 5930 5929 5928 5926 5925 5924 5923 5922 5921 5919 5918 5918 5917 5916 5915 5914 5914 5913 5913 5913 5913 5913
5937 5938 5938 5938 5939 5939 5939 5940 5940 5941 5941 5942 5942 5942 5943 5943 5943 5943 5944 5944 5944 5944 5944 5943 5944 5944 5944 5943 5943 5943 5943 5942 5942 5942 5942 5942 5942 5941 5941 5941 5940 5940 5939 5938 5936 5935 5934 5933 5933 5933 5932 5932 5932 5931 5932 5932 5932 5933 5933 5932 5932 5932 5931 5931 5930 5929 5928 5927 5926 5925 5924 5923 5922 5921 5920 5919 5919 5918 5917 5917 5916 5916 5915 5915 5915
5937 5938 5938 5939 5939 5939 5940 5940 5941 5941 5942 5942 5942 5943 5943 5943 5943 5943 5944 5944 5944 5944 5944 5944 5944 5944 5944 5943 5943 5943 5943 5943 5943 5943 5942 5942 5942 5941 5941 5941 5940 5940 5939 5938 5937 5936 5935 5935 5934 5933 5933 5933 5933 5932 5933 5933 5934 5934 5934 5934 5934 5933 5932 5932 5931 5931 5930 5929 5928 5927 5926 5925 5924 5924 5923 5922 5921 5920 5920 5919 5919 5918 5918 5918 5917
5937 5938 5938 5939 5939 5939 5940 5940 5941 5941 5942 5942 5942 5943 5943 5943 5943 5943 5943 5943 5943 5943 5943 5944 5944 5944 5943 5943 5944 5944 5944 5943 5943 5943 5943 5943 5942 5941 5941 5941 5940 5940 5939 5938 5937 5937 5936 5936 5935 5935 5935 5934 5934 5934 5934 5934 5934 5935 5935 5935 5935 5934 5933 5933 5932 5932 5931 5930 5929 5928 5928 5927 5926 5926 5925 5924 5923 5923 5922 5922 5921 5921 5921 5920 5920
5938 5938 5939 5939 5939 5940 5940 5940 5941 5941 5942 5942 5942 5943 5943 5943 5943 5943 5943 5943 5943 5943 5943 5944 5944 5944 5944 5944 5944 5944 5944 5944 5943 5944 5943 5943 5943 5942 5941 5941 5940 5939 5939 5939 5938 5938 5937 5937 5937 5936 5936 5935 5935 5934 5934 5935 5935 5935 5936 5936 5935 5935 5934 5934 5933 5933 5932 5931 5931 5930 5929 5929 5928 5927 5927 5926 5926 5925 5924 5924 5923 5923 5923 5922 5922
5937 5938 5939 5939 5940 5940 5940 5941 5941 5942 5942 5942 5943 5943 5943 5943 5943 5943 5943 5943 5943 5944 5943 5943 5943 5943 5944 5944 5944 5944 5944 5944 5943 5943 5943 5943 5943 5942 5941 5941 5940 5940 5940 5939 5939 5938 5938 5938 5937 5937 5936 5936 5936 5936 5935 5935 5936 5936 5936 5936 5936 5936 5935 5935 5934 5933 5933 5932 5931 5931 5930 5930 5929 5929 5928 5928 5927 5927 5926 5926 5925 5925 5925 5925 5924
5937 5938 5938 5939 5940 5940 5941 5941 5941 5942 5942 5942 5943 5943 5943 5943 5943 5943 5943 5943 5944 5944 5944 5943 5943 5943 5944 5944 5944 5944 5944 5944 5943 5943 5943 5943 5942 5942 5941 5941 5940 5940 5940 5940 5939 5939 5938 5938 5937 5937 5937 5937 5937 5937 5936 5936 5936 5936 5936 5936 5936 5936 5936 5935 5935 5934 5934 5933 5932 5932 5931 5931 5930 5930 5930 5929 5929 5928 5928 5927 5927 5927 5927 5926 5926
5936 5937 5938 5939 5939 5940 5940 5941 5941 5942 5942 5942 5943 5943 5943 5943 5944 5944 5943 5943 5943 5944 5944 5944 5944 5944 5944 5944 5944 5944 5943 5943 5943 5943 5943 5943 5942 5942 5941 5941 5941 5940 5940 5939 5939 5938 5938 5937 5937 5937 5937 5937 5937 5937 5937 5937 5937 5936 5936 5937 5937 5936 5936 5935 5935 5934 5934 5934 5933 5933 5932 5932 5931 5931 5931 5930 5930 5929 5929 5929 5928 5928 5928 5928 5928
5936 5936 5937 5938 5938 5939 5940 5940 5941 5941 5941 5942 5942 5943 5943 5943 5943 5943 5943 5943 5943 5943 5944 5944 5944 5944 5944 5944 5943 5943 5943 5943 5943 5942 5942 5942 5942 5942 5941 5941 5941 5940 5939 5939 5939 5938 5937 5937 5937 5937 5937 5937 5937 5937 5937 5937 5937 5937 5936 5936 5936 5936 5936 5935 5935 5935 5934 5934 5934 5933 5933 5932 5932 5932 5931 5931 5931 5930 5930 5930 5930 5929 5929 5929 5929
5935 5936 5936 5937 5937 5938 5939 5939 5940 5940 5941 5941 5941 5942 5942 5943 5943 5943 5943 5943 5943 5943 5944 5944 5944 5944 5943 5943 5943 5943 5943 5942 5942 5942 5942 5942 5942 5942 5941 5941 5940 5940 5940 5939 5939 5938 5938 5937 5937 5937 5937 5937 5937 5937 5937 5937 5936 5936 5936 5936 5936 5936 5935 5935 5935 5934 5934 5934 5934 5933 5933 5933 5932 5932 5932 5932 5931 5931 5931 5930 5930 5930 5930 5930 5930
5935 5935 5936 5936 5937 5937 5938 5938 5939 5939 5940 5940 5941 5941 5942 5942 5942 5942 5942 5942 5942 5943 5943 5943 5943 5943 5943 5943 5943 5943 5942 5942 5942 5942 5942 5942 5942 5941 5941 5941 5940 5940 5940 5939 5939 5939 5938 5938 5937 5937 5937 5937 5937 5936 5936 5936 5936 5936 5936 5936 5936 5935 5935 5935 5934 5934 5934 5933 5933 5933 5933 5933 5932 5932 5932 5932 5931 5931 5931 5930 5930 5930 5930 5930 5930
5934 5935 5935 5936 5936 5937 5937 5937 5938 5938 5939 5939 5940 5940 5941 5941 5942 5942 5942 5942 5942 5942 5942 5943 5943 5943 5942 5942 5942 5942 5942 5942 5942 5942 5942 5941 5941 5941 5940 5940 5940 5940 5940 5939 5939 5939 5938 5938 5937 5937 5937 5937 5937 5936 5936 5936 5936 5936 5936 5936 5935 5935 5934 5934 5934 5934 5933 5933 5933 5932 5932 5932 5932 5932 5931 5931 5931 5931 5931 5930 5930 5930 5930 5930 5931
5934 5934 5935 5935 5936 5936 5936 5937 5937 5937 5938 5938 5939 5939 5940 5940 5941 5941 5941 5941 5941 5941 5942 5942 5942 5942 5942 5942 5941 5941 5941 5941 5941 5941 5941 5941 5941 5940 5940 5940 5939 5939 5939 5939 5938 5938 5938 5937 5937 5937 5937 5937 5937 5936 5936 5936 5936 5936 5935 5935 5935 5934 5934 5934 5934 5933 5933 5932 5932 5932 5932 5931 5931 5931 5931 5931 5931 5931 5930 5930 5930 5930 5930 5930 5930
5932 5933 5934 5934 5935 5935 5936 5936 5937 5937 5937 5937 5938 5938 5939 5940 5940 5940 5941 5941 5941 5941 5941 5941 5941 5941 5941 5941 5941 5941 5940 5940 5940 5940 5940 5940 5940 5940 5939 5939 5939 5939 5938 5938 5938 5937 5937 5937 5937 5937 5936 5936 5936 5936 5936 5936 5936 5935 5935 5935 5934 5934 5934 5933 5933 5933 5932 5932 5932 5931 5931 5931 5930 5930 5930 5930 5930 5930 5930 5930 5930 5930 5930 5930 5930
5931 5932 5933 5933 5934 5934 5935 5935 5936 5936 5936 5937 5937 5938 5938 5938 5939 5939 5940 5940 5940 5940 5940 5940 5940 5941 5941 5940 5940 5940 5940 5940 5940 5940 5939 5939 5939 5939 5939 5938 5938 5938 5938 5938 5937 5937 5937 5937 5937 5937 5936 5936 5936 5936 5936 5935 5935 5935 5935 5935 5934 5934 5933 5933 5933 5933 5932 5932 5931 5931 5931 5930 5930 5929 5929 5929 5929 5929 5929 5929 5929 5930 5930 5930 5930
5929 5930 5931 5932 5932 5933 5933 5934 5935 5935 5936 5936 5936 5937 5937 5937 5937 5938 5938 5938 5939 5939 5939 5939 5939 5940 5940 5940 5940 5940 5940 5940 5940 5939 5939 5939 5938 5938 5938 5938 5937 5937 5937 5937 5937 5937 5936 5936 5936 5937 5937 5936 5936 5936 5935 5935 5935 5935 5934 5934 5934 5933 5933 5932 5932 5932 5932 5931 5931 5930 5930 5929 5929 5929 5928 5928 5928 5928 5928 5928 5928 5929 5929 5929 5929
5928 5928 5929 5930 5931 5931 5932 5933 5933 5934 5934 5935 5935 5935 5935 5936 5936 5936 5937 5937 5938 5938 5938 5938 5938 5938 5938 5939 5939 5939 5939 5939 5939 5938 5938 5938 5938 5937 5937 5937 5937 5937 5937 5937 5937 5937 5936 5936 5936 5936 5936 5936 5935 5935 5934 5934 5934 5933 5933 5933 5933 5932 5932 5932 5932 5931 5931 5930 5930 5929 5929 5929 5928 5928 5928 5928 5927 5927 5927 5927 5927 5928 5928 5928 5928
5926 5927 5928 5928 5929 5929 5930 5931 5932 5933 5933 5933 5934 5934 5934 5934 5935 5935 5936 5936 5937 5937 5937 5937 5937 5936 5936 5937 5937 5937 5938 5938 5937 5937 5937 5937 5936 5936 5936 5936 5936 5936 5936 5936 5936 5936 5936 5935 5935 5935 5935 5935 5934 5934 5933 5933 5933 5932 5932 5932 5931 5931 5931 5931 5931 5931 5930 5929 5929 5929 5928 5928 5927 5927 5927 5927 5927 5926 5926 5926 5926 5926 5926 5926 5926
5923 5924 5925 5926 5927 5927 5928 5929 5930 5931 5931 5932 5932 5932 5932 5933 5934 5935 5935 5935 5936 5936 5936 5936 5936 5936 5936 5935 5935 5935 5935 5935 5935 5935 5935 5935 5935 5935 5935 5935 5935 5935 5935 5935 5935 5935 5935 5935 5934 5934 5934 5934 5933 5933 5932 5932 5931 5931 5931 5930 5930 5930 5930 5930 5929 5929 5929 5929 5928 5928 5927 5927 5926 5926 5926 5926 5926 5925 5925 5925 5925 5925 5925 5925 5925
5920 5921 5922 5923 5924 5925 5926 5926 5927 5928 5929 5929 5929 5929 5930 5931 5932 5933 5934 5933 5933 5933 5934 5934 5935 5935 5935 5935 5934 5933 5933 5933 5933 5933 5934 5934 5934 5934 5934 5935 5935 5934 5934 5934 5934 5934 5935 5935 5934 5934 5934 5934 5932 5932 5932 5931 5931 5930 5930 5929 5929 5929 5929 5929 5928 5928 5928 5927 5927 5927 5926 5926 5925 5925 5925 5925 5925 5924 5924 5924 5923 5923 5923 5924 5923
5917 5918 5919 5920 5921 5922 5923 5924 5925 5925 5926 5926 5926 5927 5928 5929 5930 5931 5931 5931 5931 5931 5931 5932 5932 5932 5933 5933 5933 5932 5931 5931 5931 5931 5931 5932 5932 5932 5933 5933 5933 5933 5933 5933 5933 5932 5932 5932 5931 5932 5933 5933 5931 5931 5930 5930 5930 5929 5929 5928 5927 5927 5927 5927 5927 5927 5926 5926 5926 5926 5926 5925 5925 5924 5924 5924 5923 5923 5923 5922 5922 5922 5922 5922 5921
5914 5915 5916 5917 5918 5919 5920 5921 5922 5923 5924 5924 5924 5924 5925 5926 5927 5928 5928 5928 5928 5929 5929 5929 5929 5930 5930 5931 5931 5931 5930 5929 5928 5928 5929 5929 5930 5931 5931 5931 5931 5932 5932 5930 5929 5928 5928 5927 5927 5927 5928 5928 5928 5929 5928 5928 5928 5928 5928 5927 5926 5925 5925 5925 5925 5925 5925 5925 5925 5925 5925 5924 5924 5923 5923 5922 5922 5922 5921 5921 5920 5920 5920 5920 5920
5910 5911 5912 5913 5915 5916 5917 5918 5919 5921 5921 5922 5922 5922 5923 5923 5924 5925 5925 5925 5925 5926 5927 5927 5927 5927 5928 5928 5929 5929 5928 5927 5927 5927 5926 5927 5927 5928 5929 5930 5930 5930 5928 5926 5926 5927 5927 5927 5927 5927 5926 5926 5927 5926 5926 5925 5925 5926 5926 5925 5925 5924 5924 5923 5923 5923 5922 5922 5923 5923 5923 5923 5923 5922 5922 5921 5921 5921 5920 5920 5919 5919 5918 5918 5918
5907 5908 5909 5910 5912 5913 5914 5915 5916 5917 5919 5920 5920 5919 5920 5921 5921 5921 5922 5922 5922 5923 5924 5924 5924 5924 5925 5925 5926 5927 5927 5926 5925 5925 5925 5924 5925 5926 5927 5928 5928 5926 5924 5923 5924 5925 5926 5926 5926 5925 5925 5925 5925 5924 5923 5923 5923 5923 5924 5924 5923 5923 5922 5921 5921 5921 5920 5920 5920 5920 5921 5921 5921 5921 5920 5920 5920 5920 5919 5918 5918 5917 5917 5916 5916
5904 5904 5906 5907 5909 5910 5910 5911 5912 5914 5916 5917 5915 5915 5916 5917 5917 5918 5918 5918 5919 5920 5921 5921 5921 5921 5921 5922 5923 5924 5924 5924 5923 5922 5922 5922 5922 5923 5924 5924 5924 5924 5923 5922 5921 5921 5922 5923 5923 5923 5923 5923 5922 5922 5921 5921 5921 5921 5921 5921 5921 5920 5920 5919 5919 5919 5919 5918 5918 5918 5918 5918 5918 5918 5918 5918 5918 5918 5917 5916 5916 5915 5914 5914 5913
5900 5901 5902 5903 5905 5906 5907 5908 5909 5910 5912 5911 5910 5910 5912 5913 5914 5915 5915 5915 5916 5916 5917 5918 5918 5918 5918 5919 5920 5921 5921 5920 5918 5918 5918 5918 5919 5920 5920 5919 5920 5921 5921 5921 5920 5919 5919 5919 5920 5920 5920 5920 5919 5919 5919 5919 5918 5918 5918 5918 5918 5918 5917 5917 5917 5917 5916 5916 5916 5916 5915 5915 5915 5915 5915 5915 5914 5915 5914 5914 5913 5913 5912 5912 5911
5897 5898 5898 5899 5900 5902 5902 5904 5906 5907 5907 5906 5906 5907 5908 5908 5909 5910 5911 5912 5912 5912 5913 5914 5914 5914 5914 5915 5917 5918 5916 5914 5913 5912 5913 5913 5914 5916 5917 5916 5916 5917 5918 5918 5918 5917 5916 5916 5916 5916 5916 5916 5916 5916 5916 5916 5915 5915 5915 5915 5915 5914 5914 5914 5914 5914 5914 5913 5913 5912 5912 5912 5912 5912 5913 5912 5912 5911 5911 5911 5910 5910 5909 5909 5909
5891 5892 5894 5895 5897 5898 5899 5900 5902 5903 5902 5902 5903 5904 5904 5904 5905 5906 5907 5908 5908 5908 5909 5910 5910 5910 5911 5912 5913 5913 5911 5909 5909 5908 5908 5909 5911 5913 5914 5913 5912 5912 5913 5913 5914 5914 5913 5913 5913 5912 5912 5912 5912 5912 5912 5912 5912 5911 5911 5911 5911 5911 5910 5910 5910 5911 5911 5910 5909 5909 5909 5909 5908 5908 5909 5909 5909 5909 5908 5908 5907 5907 5906 5905 5905
5884 5885 5887 5890 5893 5895 5896 5896 5897 5899 5899 5899 5899 5900 5900 5900 5901 5901 5901 5902 5903 5904 5905 5906 5906 5907 5907 5908 5908 5907 5906 5905 5905 5905 5904 5905 5907 5909 5910 5909 5908 5908 5908 5908 5908 5909 5909 5909 5909 5908 5908 5908 5909 5909 5908 5908 5908 5907 5907 5907 5907 5907 5906 5906 5907 5907 5907 5907 5906 5905 5905 5905 5905 5904 5904 5905 5906 5905 5905 5904 5904 5903 5903 5902 5901
5879 5881 5883 5885 5888 5890 5890 5891 5892 5894 5895 5896 5896 5896 5896 5896 5896 5897 5897 5897 5898 5899 5900 5900 5901 5902 5902 5902 5902 5901 5901 5902 5902 5901 5901 5902 5903 5905 5905 5906 5905 5905 5905 5905 5904 5904 5904 5904 5904 5904 5904 5904 5905 5905 5904 5904 5904 5903 5903 5903 5903 5903 5902 5902 5902 5902 5903 5903 5902 5901 5901 5901 5901 5900 5900 5900 5901 5902 5901 5900 5900 5900 5899 5898 5898
5875 5877 5879 5880 5882 5883 5884 5885 5886 5888 5890 5891 5891 5891 5891 5892 5892 5892 5893 5893 5894 5894 5894 5895 5896 5896 5896 5896 5897 5897 5897 5897 5898 5898 5897 5898 5899 5900 5901 5902 5902 5902 5901 5901 5901 5900 5900 5900 5900 5899 5899 5900 5900 5900 5900 5900 5899 5898 5898 5898 5899 5898 5897 5897 5898 5897 5898 5899 5898 5896 5896 5897 5896 5895 5895 5895 5895 5897 5897 5895 5895 5896 5895 5894 5894